Wind_Speed
37 40 41 43 45 46 47 48 48 47 48 50 51 52 52 49 50 47 38 41 54 52 56 59 56 64 66 58 53 50 46 42 37 33 28 24 22 21 18 17 14 14 15 14 15
38 40 42 44 46 47 49 51 52 53 54 55 56 58 59 62 57 51 48 48 51 57 59 55 51 66 67 60 57 55 50 44 38 35 32 28 27 24 22 20 17 15 15 15 15
40 40 42 45 47 49 51 53 55 57 61 64 66 69 69 68 68 58 60 57 54 57 58 56 58 68 56 64 60 59 54 47 39 36 35 32 30 26 25 21 19 16 15 15 17
40 41 43 47 48 50 53 55 61 64 69 72 77 83 85 84 79 73 68 65 61 58 57 61 69 58 59 52 60 60 57 49 44 40 38 33 31 27 25 24 20 18 16 15 17
41 42 44 47 50 52 56 60 67 72 78 83 86 89 97 101 92 84 75 72 67 62 61 67 70 71 71 58 56 59 54 52 48 42 39 37 31 30 30 27 24 22 18 16 16
40 42 45 48 51 55 60 67 75 74 64 55 49 48 61 83 81 88 84 78 70 65 62 68 60 60 59 62 62 53 58 52 50 46 43 37 36 37 32 29 26 24 21 18 17
40 43 46 48 53 58 65 73 64 44 28 20 24 30 35 29 49 74 87 79 72 64 62 63 63 66 65 65 64 55 56 56 53 50 43 40 40 36 34 31 29 27 24 20 19
40 43 46 49 55 61 68 58 36 26 24 24 28 31 38 29 37 61 80 80 69 64 63 60 64 63 79 71 61 61 59 52 55 53 52 53 42 37 34 30 30 29 26 24 21
40 43 46 51 56 63 57 35 22 18 25 35 34 39 37 24 32 47 56 75 65 64 62 65 62 68 72 71 66 52 56 56 57 54 51 52 45 41 37 35 34 33 29 28 24
39 42 46 51 56 57 38 18 15 25 27 27 21 31 20 19 36 45 54 69 63 64 58 59 65 67 60 69 74 60 56 55 55 48 48 52 45 49 41 39 36 34 32 30 26
38 42 46 50 54 41 18 10 18 22 27 29 21 13 16 37 31 45 49 70 79 63 59 63 61 75 62 58 66 59 57 52 46 49 49 52 49 45 42 41 40 39 35 32 30
37 40 45 48 42 25 6 11 16 24 23 22 9 17 29 38 27 67 60 61 60 72 65 60 74 64 42 58 68 62 54 57 53 56 50 53 51 46 47 42 40 37 37 35 38
36 39 42 43 23 7 4 8 21 20 21 8 4 12 14 18 39 48 58 60 58 59 66 58 68 65 54 52 60 63 58 58 56 55 49 55 53 51 51 48 44 43 41 40 39
35 38 39 36 10 2 7 15 13 11 13 9 4 7 11 21 38 66 56 53 57 55 50 67 63 65 55 42 54 66 57 55 55 54 52 53 51 51 51 53 48 45 41 37 36
33 36 36 27 6 1 9 14 8 8 8 6 3 19 14 30 33 54 47 67 44 47 47 51 54 51 59 37 46 63 69 59 50 54 58 55 51 49 48 53 49 48 44 38 41
31 35 33 18 10 6 7 13 4 8 15 7 6 18 24 24 30 45 59 66 45 42 42 46 55 54 58 40 39 53 67 65 46 55 56 55 55 51 47 49 53 45 41 41 40
29 31 31 23 17 12 7 8 5 6 14 4 10 17 16 8 19 37 55 55 44 37 40 40 44 59 44 36 38 41 59 63 62 55 55 45 55 54 50 50 49 47 41 38 41
27 30 30 22 12 18 11 9 6 9 7 8 8 7 10 6 13 31 42 52 44 54 42 44 37 44 46 36 36 36 50 59 60 64 60 65 63 57 53 50 43 53 42 40 45
25 27 29 21 11 23 19 13 8 8 7 5 12 19 10 11 14 34 44 41 51 48 44 42 49 46 42 34 35 38 47 49 59 48 60 66 64 62 54 52 47 43 46 40 44
23 27 25 22 13 18 23 17 10 8 6 6 18 20 14 11 13 26 38 47 53 28 45 49 47 42 47 41 37 39 40 48 51 53 53 60 60 61 56 52 49 43 45 41 45
23 25 25 23 14 10 20 22 16 12 10 8 15 22 14 21 18 26 43 43 61 49 29 32 52 49 41 42 35 36 38 42 50 55 56 61 61 57 59 55 47 45 48 46 43
21 23 22 23 16 13 17 22 24 19 15 7 12 24 15 18 15 28 44 49 45 46 40 38 45 38 49 40 35 36 35 36 41 48 54 58 57 56 58 60 61 58 50 52 49
22 20 21 21 16 13 21 22 21 24 15 12 11 18 18 18 19 20 38 37 43 39 30 29 31 37 45 50 45 34 32 38 39 44 51 52 51 49 51 50 50 51 53 53 52
21 21 21 20 20 15 15 23 22 23 19 16 15 14 13 22 21 20 21 30 31 36 37 33 30 29 41 45 49 46 36 35 40 43 46 48 48 49 46 42 42 37 41 49 51
19 19 19 20 19 15 12 18 24 22 22 25 21 16 16 20 22 23 21 26 28 30 33 31 33 33 29 30 34 39 38 37 37 39 44 45 46 45 45 44 45 42 39 40 45
18 17 19 19 19 16 11 15 21 25 24 25 25 21 18 19 22 24 24 27 30 33 27 31 36 31 31 33 33 30 33 34 37 37 43 45 46 46 46 44 43 44 41 39 37
18 17 17 19 18 18 11 13 18 25 27 26 26 26 24 23 23 21 23 25 26 32 36 33 30 34 37 36 36 34 30 32 31 36 38 41 35 37 44 42 41 40 41 42 42
Wind_Direction
284 282 280 279 278 278 276 273 269 264 266 266 263 257 253 250 250 248 254 246 239 232 226 212 223 210 211 210 210 211 210 204 198 199 202 203 202 204 202 202 199 204 201 195 193
285 283 283 282 282 281 278 275 270 269 269 267 263 258 254 250 245 247 244 242 234 233 232 228 221 217 206 209 211 215 215 209 201 199 206 206 206 202 202 201 197 199 196 193 195
288 288 288 286 286 285 283 280 278 276 273 268 262 260 253 248 247 245 238 238 230 229 231 232 200 207 208 210 210 214 215 210 204 202 206 206 208 202 203 201 198 195 194 195 196
292 292 291 290 290 289 288 285 283 279 273 269 263 260 255 249 244 239 232 230 227 222 226 225 199 202 213 214 215 215 216 210 209 206 208 206 210 207 205 205 201 199 194 196 202
297 296 294 295 296 295 293 290 287 285 279 273 267 260 253 247 240 237 226 224 223 220 223 225 210 210 217 213 214 213 214 213 209 212 210 207 207 211 210 203 206 201 197 197 200
299 297 297 301 301 300 297 297 293 290 288 276 266 260 255 247 238 230 223 219 219 218 221 224 223 205 205 211 216 219 215 215 208 214 212 211 208 214 212 206 207 205 201 201 201
299 300 304 306 305 303 304 300 301 295 272 268 272 266 278 279 233 217 217 213 213 214 216 222 226 210 202 211 216 216 220 214 213 213 215 213 214 213 216 210 209 208 206 205 206
302 307 308 310 307 309 307 307 299 282 265 266 268 274 282 270 219 208 206 204 204 209 215 212 224 219 204 210 216 219 216 210 211 207 213 215 215 214 216 215 213 213 211 214 212
308 310 312 311 313 313 313 306 286 265 281 274 272 260 274 234 213 196 193 196 195 193 203 210 214 220 210 210 213 208 216 211 210 212 209 213 213 216 214 215 214 214 215 217 217
312 314 314 315 318 316 319 308 278 302 305 307 304 265 271 203 174 184 183 186 184 194 208 205 212 222 207 204 212 210 212 211 217 216 213 213 211 218 214 215 217 216 218 222 221
316 316 317 321 320 323 324 305 305 306 300 299 311 269 192 174 161 167 166 180 183 192 202 200 206 213 211 213 207 214 218 215 205 221 219 215 212 217 218 217 219 219 220 223 223
317 318 320 324 324 328 302 330 324 315 316 325 246 175 175 149 162 166 168 176 193 198 206 200 212 205 209 216 212 214 211 210 211 214 219 216 213 214 216 216 221 222 221 222 226
318 320 325 326 326 347 24 327 326 297 305 172 309 162 129 146 158 184 161 173 178 189 204 213 217 207 213 212 213 212 212 206 213 214 216 218 218 216 220 219 217 216 216 221 226
320 323 329 332 316 317 337 336 309 294 329 300 293 270 151 167 160 169 180 181 179 186 191 210 216 216 206 212 213 212 207 206 215 221 220 220 215 218 219 220 218 219 221 226 233
323 325 333 335 253 237 326 340 307 315 343 289 273 155 168 157 160 177 180 190 190 183 189 200 195 204 212 202 205 213 212 212 220 220 220 214 222 218 215 217 221 221 226 231 238
324 327 334 336 218 245 309 335 325 285 332 299 141 152 174 162 165 184 191 180 192 180 194 211 205 201 197 204 198 209 209 212 215 221 225 226 220 219 221 224 222 224 231 240 238
326 329 335 336 216 232 263 313 265 270 328 213 161 158 160 137 195 179 196 198 199 189 189 209 221 214 202 200 205 206 210 213 224 226 228 221 226 221 220 226 224 228 236 236 231
328 330 337 331 243 222 241 260 285 270 284 230 170 185 176 186 187 184 192 201 183 193 205 204 194 210 203 207 206 209 204 209 218 229 232 230 227 226 226 229 232 228 234 228 229
329 331 339 332 309 226 233 243 270 265 301 231 191 193 184 204 200 189 193 201 212 202 220 211 214 206 207 205 213 215 209 207 218 219 224 231 230 232 233 239 238 241 224 234 239
328 330 340 338 296 241 233 238 249 274 277 229 203 190 213 205 209 202 192 193 201 203 208 224 222 225 229 223 219 223 220 218 216 220 228 227 230 232 235 237 238 229 230 247 249
325 330 337 340 315 263 240 234 241 249 261 222 211 202 193 209 216 208 199 189 205 223 211 204 219 223 222 222 226 223 230 225 222 221 224 226 234 235 238 236 234 237 248 245 243
320 330 337 337 326 263 244 237 234 241 253 257 222 208 200 184 192 204 196 194 195 209 213 215 220 237 234 229 225 226 226 221 223 224 229 234 239 245 243 245 244 245 252 246 246
317 326 335 337 337 302 236 244 238 239 233 243 226 215 212 212 213 195 208 220 205 211 206 215 220 228 233 232 235 240 233 222 224 224 225 230 236 244 249 247 249 244 238 242 244
313 323 328 337 337 317 254 231 233 231 225 229 229 245 230 213 210 210 200 200 204 216 218 218 221 228 233 240 245 246 245 235 234 229 229 230 236 243 246 246 246 238 239 235 242
309 319 321 333 337 327 275 237 228 225 226 226 234 236 234 211 218 223 223 209 203 199 212 219 221 224 221 225 228 229 231 233 235 232 232 233 234 239 242 245 243 249 248 244 239
305 316 319 326 333 332 289 245 230 219 222 221 224 230 223 232 230 234 231 229 219 212 205 216 225 227 227 231 224 222 225 229 233 234 232 232 232 232 238 240 242 243 248 250 248
299 311 316 322 330 332 315 249 239 228 221 222 223 219 222 225 235 238 247 247 231 224 225 225 223 232 244 247 252 241 240 234 230 231 233 235 234 232 232 232 238 242 245 247 246
Height
5717 5714 5711 5709 5708 5706 5705 5702 5700 5700 5700 5699 5698 5698 5700 5704 5707 5714 5722 5726 5733 5740 5743 5753 5758 5761 5768 5775 5781 5787 5791 5797 5804 5808 5813 5816 5819 5821 5823 5826 5827 5829 5831 5833 5835
5706 5704 5701 5699 5697 5694 5691 5688 5686 5685 5685 5684 5682 5682 5685 5686 5693 5705 5712 5714 5721 5726 5732 5741 5746 5755 5758 5769 5773 5776 5785 5795 5800 5805 5809 5812 5815 5818 5820 5823 5825 5827 5829 5831 5834
5697 5693 5691 5688 5684 5680 5677 5674 5671 5668 5666 5664 5662 5661 5663 5666 5673 5694 5696 5702 5710 5715 5722 5728 5735 5744 5750 5759 5767 5771 5778 5790 5795 5800 5804 5807 5810 5815 5817 5821 5823 5825 5828 5829 5832
5687 5683 5680 5677 5672 5666 5663 5658 5653 5647 5642 5639 5636 5630 5633 5639 5653 5670 5680 5687 5696 5702 5708 5718 5727 5735 5742 5749 5760 5764 5774 5785 5791 5795 5799 5804 5807 5813 5815 5818 5821 5823 5825 5828 5831
5676 5672 5668 5664 5658 5652 5646 5640 5631 5622 5611 5602 5596 5593 5594 5601 5625 5641 5660 5669 5679 5691 5697 5710 5720 5729 5736 5747 5754 5757 5769 5776 5785 5790 5795 5798 5804 5808 5810 5814 5817 5820 5823 5826 5828
5666 5661 5656 5650 5644 5636 5627 5617 5605 5591 5578 5569 5563 5559 5557 5559 5591 5611 5634 5651 5666 5680 5687 5702 5712 5725 5732 5738 5745 5753 5761 5770 5777 5784 5790 5794 5799 5801 5807 5811 5815 5818 5821 5823 5826
5656 5650 5644 5637 5629 5620 5607 5593 5577 5566 5562 5558 5555 5551 5547 5559 5566 5582 5609 5635 5655 5670 5681 5694 5704 5709 5722 5731 5740 5747 5753 5761 5770 5777 5783 5789 5791 5799 5802 5808 5811 5815 5818 5821 5823
5646 5639 5632 5624 5616 5604 5588 5573 5564 5560 5558 5554 5550 5544 5538 5546 5549 5559 5586 5620 5644 5660 5674 5685 5695 5701 5711 5722 5733 5739 5743 5750 5764 5771 5777 5781 5789 5796 5800 5805 5809 5812 5815 5818 5820
5636 5629 5622 5614 5603 5589 5574 5563 5559 5557 5554 5547 5543 5538 5537 5539 5544 5561 5581 5611 5636 5652 5660 5673 5684 5689 5700 5711 5720 5727 5737 5747 5755 5762 5769 5774 5784 5789 5795 5799 5804 5808 5811 5814 5818
5627 5620 5613 5603 5591 5577 5566 5561 5558 5555 5550 5543 5537 5533 5535 5540 5543 5558 5580 5603 5628 5647 5652 5660 5669 5677 5685 5697 5708 5724 5730 5740 5749 5756 5762 5768 5779 5779 5788 5794 5800 5804 5806 5810 5815
5618 5613 5605 5593 5581 5569 5563 5561 5560 5555 5547 5538 5534 5530 5533 5536 5545 5560 5583 5601 5614 5624 5634 5649 5662 5667 5685 5697 5708 5720 5727 5736 5746 5749 5757 5763 5772 5778 5784 5789 5792 5797 5801 5807 5810
5612 5606 5597 5585 5573 5566 5565 5562 5558 5552 5547 5540 5538 5534 5534 5540 5550 5563 5582 5598 5610 5622 5631 5645 5655 5678 5684 5692 5702 5711 5720 5730 5737 5742 5751 5758 5765 5771 5775 5782 5788 5794 5797 5801 5801
5606 5600 5591 5579 5570 5567 5565 5563 5559 5553 5550 5549 5545 5541 5544 5544 5559 5564 5582 5598 5612 5622 5630 5646 5659 5665 5673 5683 5693 5703 5713 5723 5730 5737 5744 5748 5758 5763 5768 5774 5779 5783 5788 5792 5796
5601 5594 5585 5575 5571 5568 5566 5563 5559 5557 5553 5550 5550 5546 5552 5552 5560 5573 5581 5596 5606 5619 5630 5641 5647 5658 5668 5678 5687 5696 5708 5717 5724 5730 5736 5742 5748 5754 5761 5769 5773 5780 5784 5788 5793
5597 5588 5581 5571 5571 5567 5567 5564 5562 5561 5557 5555 5552 5554 5554 5562 5568 5572 5585 5592 5601 5613 5624 5632 5640 5652 5664 5678 5682 5691 5702 5710 5716 5722 5728 5734 5741 5750 5755 5760 5766 5772 5779 5784 5787
5592 5585 5576 5570 5569 5568 5568 5565 5564 5564 5560 5559 5556 5557 5560 5565 5573 5578 5583 5594 5602 5610 5621 5629 5639 5646 5659 5667 5673 5681 5691 5702 5710 5713 5717 5727 5735 5742 5746 5754 5761 5768 5773 5778 5780
5588 5582 5574 5567 5566 5567 5568 5568 5567 5564 5563 5563 5563 5563 5565 5570 5573 5580 5586 5592 5599 5606 5616 5627 5636 5643 5654 5662 5666 5673 5685 5693 5698 5699 5709 5719 5724 5733 5739 5746 5756 5763 5768 5771 5773
5585 5580 5573 5565 5563 5565 5567 5569 5568 5567 5566 5564 5567 5568 5571 5572 5575 5582 5587 5592 5600 5611 5618 5625 5630 5637 5647 5655 5663 5671 5678 5683 5687 5694 5704 5708 5712 5720 5733 5740 5749 5754 5761 5764 5766
5581 5577 5571 5564 5561 5563 5566 5567 5568 5568 5567 5567 5568 5570 5573 5575 5578 5583 5589 5593 5600 5606 5612 5618 5625 5633 5642 5649 5657 5663 5666 5675 5683 5690 5694 5702 5712 5718 5730 5734 5741 5747 5753 5757 5760
5579 5575 5570 5564 5560 5560 5563 5566 5567 5568 5568 5569 5570 5571 5574 5577 5579 5581 5586 5591 5598 5605 5613 5616 5625 5631 5637 5645 5652 5658 5665 5669 5675 5684 5689 5695 5702 5710 5717 5726 5732 5738 5746 5749 5752
5577 5573 5568 5562 5558 5559 5560 5564 5565 5567 5569 5569 5570 5573 5575 5577 5579 5581 5585 5591 5602 5606 5611 5616 5621 5629 5633 5640 5647 5653 5657 5663 5670 5677 5681 5687 5695 5702 5708 5715 5722 5728 5732 5738 5741
5575 5571 5566 5561 5557 5556 5557 5559 5563 5565 5568 5569 5570 5572 5575 5576 5579 5581 5586 5588 5599 5607 5611 5615 5618 5625 5631 5637 5642 5647 5652 5656 5662 5670 5676 5683 5690 5693 5700 5707 5713 5718 5723 5727 5731
5572 5568 5564 5560 5555 5553 5554 5555 5559 5563 5565 5567 5570 5572 5574 5576 5579 5583 5586 5588 5595 5601 5605 5611 5614 5619 5624 5629 5634 5640 5646 5651 5654 5659 5668 5674 5683 5684 5688 5694 5698 5706 5712 5717 5721
5570 5565 5562 5559 5554 5551 5550 5552 5555 5559 5561 5564 5567 5570 5573 5575 5578 5582 5585 5589 5594 5599 5604 5607 5609 5613 5618 5623 5630 5636 5640 5644 5647 5654 5662 5668 5671 5675 5680 5685 5690 5695 5700 5704 5709
5566 5562 5560 5556 5553 5550 5547 5548 5550 5555 5558 5561 5565 5567 5571 5573 5576 5579 5582 5585 5588 5593 5597 5600 5603 5608 5613 5617 5621 5627 5632 5634 5641 5648 5650 5657 5662 5667 5671 5676 5681 5685 5689 5693 5699
5563 5560 5557 5555 5552 5549 5546 5546 5546 5549 5553 5557 5561 5563 5566 5570 5573 5576 5579 5581 5583 5589 5592 5595 5600 5603 5607 5611 5615 5619 5624 5629 5634 5637 5640 5644 5652 5657 5660 5665 5670 5675 5679 5683 5688
5559 5557 5555 5552 5550 5548 5544 5543 5544 5545 5548 5551 5555 5559 5562 5565 5568 5571 5574 5577 5580 5584 5587 5591 5594 5598 5600 5604 5608 5613 5619 5622 5625 5629 5634 5638 5647 5648 5652 5658 5662 5665 5669 5673 5676